Regional Weather Roundup
Issued by NWS Green Bay, WI

Home | Current Version | Previous Version | Text Only | Print | Product List | Glossary On
Versions: 1 2 3 4 5 6 7 8 9 10 11 12 13 14 15 16 17 18 19 20 21 22 23 24 25 26 27 28 29 30 31 32 33 34 35 36 37 38 39 40 41 42 43 44 45 46 47 48 49 50
000
ASUS43 KGRB 241911
RWRGRB

NORTH-CENTRAL AND NORTHEAST WISCONSIN REGIONAL WEATHER ROUNDUP
NATIONAL WEATHER SERVICE GREEN BAY WI
200 PM CDT SUN MAY 24 2015

WIZ005-009-010>012-018-019-242000-
NORTH CENTRAL WISCONSIN

CITY           SKY/WX    TMP DP  RH WIND       PRES   REMARKS
IRONWOOD       CLOUDY    73  46  38 SW3       30.01F
MANITOWISH WTR CLOUDY    73  48  41 S9        30.05F
ARBOR VITAE    CLOUDY    74  48  39 SE10G18   30.06F
EAGLE RIVER    CLOUDY    74  42  31 SE13      30.06F
LAND O LAKES   CLOUDY    75  43  31 S7        30.06F
RHINELANDER    CLOUDY    73  45  36 S15       30.08F
PHILLIPS       CLOUDY    69  51  52 S9G16     30.05F
ANTIGO         DRIZZLE   62  55  75 S17       30.12S
TOMAHAWK       CLOUDY    66  52  59 SW7       30.09F
MERRILL        LGT RAIN  61  56  83 S10       30.11F
$$

WIZ013-073-242000-
NORTHEAST WISCONSIN

CITY           SKY/WX    TMP DP  RH WIND       PRES   REMARKS
IRON MOUNTAIN  CLOUDY    77  46  33 S8        30.05F
MARINETTE      CLOUDY    70  52  52 SW15G23   30.09F
OCONTO         CLOUDY    68  53  58 SW12G18   30.11F
$$

WIZ017-030-035>037-045-242000-
CENTRAL WISCONSIN

CITY           SKY/WX    TMP DP  RH WIND       PRES   REMARKS
MEDFORD        RAIN      59  56  89 SE7       30.08F
WAUSAU         LGT RAIN  62  55  77 S8        30.08F
MOSINEE        DRIZZLE   61  57  88 SE9       30.11F
MARSHFIELD     RAIN      60  54  80 SE12      30.08F
WISC RAPIDS    LGT RAIN  59  55  87 SE9       30.09F
STEVENS POINT  LGT RAIN  58  55  91 E7        30.10F
WAUPACA        LGT RAIN  62  57  83 E5        30.11F
SHAWANO        CLOUDY    68  53  58 S8        30.12F
CLINTONVILLE   RAIN      63  54  72 S10       30.12F
$$

WIZ038-039-048-051-242000-
FOX VALLEY

CITY           SKY/WX    TMP DP  RH WIND       PRES   REMARKS
NWS GREEN BAY  LGT RAIN  63  57  81 S12       30.14F
APPLETON       DRIZZLE   61  54  77 SE6       30.13F
OSHKOSH        LGT RAIN  61  56  83 SE6       30.12F
FOND DU LAC    LGT RAIN  62  56  80 SE5       30.12F
$$

WIZ022-050-052-242000-
EAST CENTRAL WISCONSIN

CITY           SKY/WX    TMP DP  RH WIND       PRES   REMARKS
STURGEON BAY   CLOUDY    66  50  55 SW7       30.15F
MANITOWOC      LGT RAIN  62  57  83 SE7       30.14F
SHEBOYGAN      LGT RAIN  63  56  78 S5        30.13F
$$

LMZ563-521-522-541>543-242000-
LAKESHORE

STATION/POSITION TIME  TEMP    WIND        PRES    VSBY  WAVE
                       AIR SEA DIR/SP/G                  HT/PER
                 (UTC) (F)     (DEG/KT/KT) (MB)    (MI)  (FT/S)
SHEBOYGAN LKSHOR 1900   50     130/  2/  3 1020.7F
KEWAUNEE LKSHORE 1800   62     200/ 15/ 21 1020.3R
NORTHPORT PIER   1800   54     160/  9/ 15 1020.0F
N MID LAKE BUOY  1850   41 36  200/ 10/ 12 1020.7F         1
SISTER BAY LKSHO 1832   66     160/  8/ 10   N/A
CHAMBERS ISLAND  1800   72     170/  3/  7 1019.6F
MENOMINEE LKSHOR 1800   64     160/ 11/ 13 1020.2F
$$



USA.gov is the U.S. government's official web portal to all federal, state and local government web resources and services.